Wind_Speed
44 44 42 39 40 42 44 44 43 40 42 44 43 40 36 37 36 34 34 34 33 33 33 32 32 31 31 31 31 30 30 30 29 29 29 29 29 29 30 31 32 32 33 33
45 44 38 39 41 43 44 45 44 42 43 46 45 43 38 38 39 37 36 35 35 35 34 33 33 32 32 32 31 31 31 31 30 30 30 30 30 31 32 32 33 34 34 34
43 39 39 41 42 43 43 42 41 42 44 48 49 45 39 38 39 38 36 36 36 36 36 35 34 33 33 32 32 32 31 31 31 31 31 32 32 32 33 34 34 35 35 36
43 41 41 42 42 42 41 40 41 42 44 46 48 48 37 36 38 37 36 36 36 36 36 35 34 34 33 33 32 32 32 32 32 32 32 33 33 34 34 35 36 36 37 38
43 41 40 41 39 40 40 40 42 43 45 46 44 47 39 34 35 36 37 36 36 36 36 35 34 34 33 33 33 33 33 34 34 34 34 34 35 35 36 36 37 37 38 39
44 43 42 41 39 40 40 41 42 43 44 46 41 44 42 33 33 35 36 37 36 36 35 34 34 33 33 34 34 34 34 35 35 35 35 35 36 36 36 37 38 39 40 41
44 43 41 40 40 39 40 39 41 42 43 44 40 42 41 34 33 34 35 35 35 34 34 34 34 33 33 34 34 35 35 35 36 36 36 36 36 37 38 39 40 41 41 42
43 42 40 39 39 38 38 39 40 41 42 41 41 41 37 34 32 32 33 34 34 34 34 34 34 34 34 34 35 35 36 36 36 37 37 37 37 38 39 40 41 42 43 43
41 40 39 38 38 38 39 40 39 42 43 43 42 39 34 31 30 31 32 33 33 34 34 34 34 34 34 34 34 35 35 36 36 37 37 38 38 39 41 42 43 43 43 44
42 41 39 39 40 41 41 40 41 43 44 44 41 37 32 28 29 31 31 32 33 33 34 34 33 33 34 34 34 35 35 36 36 37 38 39 40 41 42 43 44 44 45 46
42 42 41 41 42 40 41 41 42 43 44 43 41 36 31 28 28 28 30 31 32 33 33 33 33 33 33 33 33 34 35 36 36 38 39 40 41 42 43 44 45 46 47 48
41 42 43 41 41 41 42 42 42 42 42 41 41 37 31 29 29 29 29 31 31 32 32 32 33 32 32 32 33 34 35 36 38 39 40 41 42 43 44 45 46 47 48 49
42 44 43 43 42 41 41 40 40 41 42 42 40 36 30 29 28 29 30 31 32 32 32 33 32 32 33 34 34 35 36 37 38 40 41 42 43 44 45 46 47 48 49 49
44 45 43 41 37 36 37 37 38 40 42 41 38 34 30 29 29 30 31 32 32 33 33 33 33 34 34 34 35 36 37 38 39 41 42 42 44 45 46 47 48 48 49 50
45 44 41 39 38 38 37 37 38 40 40 40 37 35 30 29 31 32 33 34 34 33 34 34 34 34 35 36 36 37 38 39 40 41 42 44 45 46 47 48 48 49 50 51
45 43 41 40 39 39 39 39 39 40 39 39 37 34 29 31 33 34 35 35 35 34 34 34 35 35 36 36 37 38 39 40 41 42 44 45 46 47 48 49 49 50 52 53
45 43 42 41 39 40 41 37 38 38 37 37 37 33 31 32 33 34 35 36 35 35 35 35 35 35 36 37 38 39 40 41 42 44 45 46 47 48 49 49 50 52 53 53
45 44 43 42 42 44 38 35 35 36 35 35 35 33 32 31 32 34 35 36 36 36 36 36 36 37 38 39 40 41 41 42 43 44 45 46 47 48 49 50 51 52 52 53
47 46 45 44 44 42 39 35 33 34 33 32 33 32 32 33 34 33 34 35 36 36 36 37 38 39 39 40 40 42 43 43 44 45 45 46 47 48 49 50 51 52 53 54
48 47 46 45 45 43 38 35 34 34 33 30 31 32 33 35 35 32 34 35 36 36 37 38 39 40 40 41 42 43 43 43 44 45 46 47 48 48 49 50 52 53 53 54
49 48 47 45 44 42 38 35 34 35 31 30 31 32 34 35 35 34 34 35 36 37 38 39 40 40 41 42 42 42 43 43 44 45 46 46 47 49 50 51 52 53 54 55
48 48 46 45 45 40 36 35 33 31 31 32 33 33 33 34 35 35 35 36 36 38 39 39 40 41 41 41 42 42 42 43 44 45 45 46 48 49 50 51 52 53 55 56
48 48 46 44 41 38 36 35 34 33 33 34 34 34 34 35 36 36 36 37 37 38 39 39 40 40 40 41 41 41 42 43 44 45 46 47 48 49 50 51 53 54 56 57
46 46 46 46 43 40 38 37 36 35 34 34 34 35 35 36 36 36 37 37 38 38 38 39 39 39 40 40 41 42 42 43 44 45 46 47 48 49 51 52 54 55 56 57
45 44 45 45 42 41 39 37 36 36 36 35 35 35 36 36 36 36 36 37 37 38 38 39 39 39 40 41 42 42 43 44 45 45 46 47 49 50 52 53 54 55 57 59
45 43 43 42 39 39 38 37 37 38 37 37 36 36 36 35 35 35 36 36 37 37 38 38 39 39 40 41 42 43 44 44 45 45 46 48 50 51 53 53 55 56 59 61
Wind_Direction
242 244 245 247 248 248 247 248 249 250 254 256 257 258 258 263 265 266 267 268 270 271 273 275 275 274 273 271 270 269 269 270 271 272 273 275 277 279 280 282 284 286 288 289
243 245 247 247 247 248 249 250 251 251 254 256 257 258 259 261 264 265 266 267 269 270 272 274 274 273 272 270 269 269 268 269 269 271 272 274 276 278 280 282 285 287 288 290
244 244 244 245 247 249 250 252 253 254 253 256 258 257 258 260 263 264 265 265 267 269 270 271 272 272 271 270 268 268 268 268 269 270 272 273 275 278 281 283 286 287 289 291
241 241 242 244 247 249 252 254 254 254 254 255 259 260 256 258 261 263 264 264 266 267 268 269 270 270 269 268 267 267 268 268 269 270 271 273 276 278 281 284 286 287 289 291
242 243 244 246 247 249 252 252 253 254 256 256 258 263 260 257 259 262 263 263 264 265 266 268 268 268 268 267 267 267 268 269 269 270 272 274 276 279 281 284 286 288 290 291
240 240 241 243 243 246 249 250 253 255 257 258 259 263 263 259 258 259 262 263 263 263 265 266 267 267 267 266 266 267 267 268 269 270 272 274 277 279 282 284 287 289 291 292
240 241 241 243 244 246 249 252 254 257 258 261 261 261 264 263 259 259 260 262 262 262 263 264 265 265 265 265 265 265 265 267 268 270 272 275 278 281 283 285 288 290 292 292
240 240 241 243 245 248 250 252 254 258 260 261 260 260 262 265 263 260 259 259 259 260 261 263 263 263 264 264 265 265 266 267 269 271 273 276 279 281 284 286 289 290 292 293
240 241 240 241 242 244 246 249 252 256 258 260 261 262 263 266 264 260 258 257 258 259 260 261 262 263 264 264 264 265 266 267 269 272 274 277 280 282 285 287 289 291 292 293
237 240 238 239 240 241 244 246 248 252 257 261 263 264 267 264 262 261 259 257 257 258 259 261 261 262 263 263 264 265 267 268 270 273 275 278 281 283 286 288 290 291 293 294
235 238 239 239 241 243 244 247 249 253 257 261 263 264 265 264 261 259 257 257 257 258 259 260 261 262 263 263 264 265 267 269 271 274 277 280 282 284 287 289 290 292 293 294
234 237 239 239 240 242 243 245 247 251 255 259 262 262 262 263 260 258 257 257 257 257 258 259 261 262 263 264 264 266 268 270 273 275 278 281 283 286 287 289 291 293 294 295
233 235 237 238 239 241 243 245 248 252 254 256 259 262 262 261 259 257 257 256 256 256 258 259 261 262 263 265 266 268 270 272 275 278 280 283 285 287 289 290 292 293 295 296
232 235 238 241 244 245 246 246 248 250 253 256 258 262 260 260 258 257 255 255 255 257 259 262 263 263 265 267 269 271 273 275 278 280 282 284 286 288 290 292 293 294 296 297
231 234 236 238 239 241 242 243 245 247 251 255 257 259 258 257 257 255 254 255 257 258 260 262 263 264 267 269 271 273 275 277 280 282 284 286 288 289 291 292 294 295 296 297
232 234 237 239 240 241 242 242 245 248 251 255 256 257 257 256 256 256 257 257 258 259 261 263 264 266 268 271 272 274 277 279 282 284 286 287 289 290 291 293 294 295 297 298
232 235 237 239 240 242 242 244 248 251 253 256 257 259 258 257 257 258 258 258 259 260 262 263 266 267 270 272 274 276 279 282 284 286 287 288 289 290 292 293 295 296 297 298
230 233 235 237 239 242 245 245 248 251 252 253 255 256 257 258 258 258 259 260 261 262 263 265 266 268 271 273 276 278 281 283 285 286 287 289 290 291 293 294 295 296 297 298
229 232 236 238 241 244 244 245 247 250 251 252 255 255 257 258 259 259 261 262 264 265 267 268 270 272 274 277 279 280 282 284 285 287 288 289 291 292 293 294 295 297 298 298
228 232 236 239 242 244 245 246 249 251 251 252 255 255 256 257 259 260 260 262 265 267 269 271 273 275 277 279 281 282 283 285 287 288 289 290 291 292 293 295 296 297 297 298
229 232 235 238 242 244 246 247 248 251 254 254 255 255 256 258 261 262 262 264 267 269 271 273 275 276 279 281 282 283 285 286 288 289 290 291 292 293 294 295 296 297 298 299
230 234 236 239 242 244 248 251 252 253 253 254 254 255 257 260 262 264 265 267 269 271 273 274 276 278 280 282 284 285 286 287 289 290 290 291 292 294 295 295 296 298 299 299
229 232 236 240 245 249 250 252 254 252 253 254 256 257 259 262 264 266 268 270 271 273 274 276 277 279 281 282 284 285 287 288 290 291 292 292 293 294 295 296 297 298 299 300
230 232 236 239 242 247 249 250 252 252 253 255 257 259 261 263 266 268 270 272 274 275 276 277 279 280 281 283 285 286 288 289 290 291 292 293 294 295 296 297 298 299 300 300
232 233 236 240 242 245 248 250 252 253 254 256 258 261 263 265 268 270 272 274 275 276 278 279 280 281 283 285 286 287 289 290 291 292 293 294 295 296 297 298 299 300 300 301
230 232 235 238 241 245 247 250 251 252 254 256 259 262 265 267 269 271 273 275 276 278 279 280 281 283 285 286 287 288 290 291 292 293 294 295 296 297 298 299 300 300 301 302
Height
5762 5766 5771 5776 5778 5780 5781 5783 5786 5790 5790 5791 5793 5797 5801 5800 5801 5803 5804 5804 5805 5805 5805 5805 5805 5804 5804 5803 5803 5802 5801 5801 5800 5799 5798 5798 5797 5796 5795 5793 5792 5790 5788 5786
5754 5759 5766 5766 5767 5769 5772 5774 5778 5782 5782 5781 5784 5787 5792 5793 5793 5795 5796 5797 5797 5797 5797 5797 5797 5797 5797 5796 5796 5795 5795 5794 5794 5793 5792 5792 5791 5789 5788 5787 5785 5783 5781 5779
5746 5754 5755 5755 5758 5761 5763 5767 5770 5772 5772 5772 5773 5779 5785 5786 5785 5787 5788 5789 5789 5789 5789 5789 5790 5790 5790 5789 5789 5789 5788 5788 5787 5787 5786 5785 5784 5783 5782 5780 5778 5776 5774 5772
5736 5742 5745 5747 5750 5753 5756 5759 5760 5761 5762 5764 5765 5766 5778 5778 5777 5778 5780 5780 5781 5781 5781 5782 5782 5782 5782 5782 5782 5782 5781 5781 5780 5780 5779 5778 5777 5776 5775 5773 5771 5769 5767 5764
5729 5734 5736 5739 5744 5745 5748 5749 5750 5751 5752 5755 5758 5757 5767 5770 5771 5771 5771 5772 5773 5773 5773 5774 5774 5775 5775 5775 5775 5774 5774 5774 5773 5772 5772 5771 5770 5769 5767 5765 5763 5761 5759 5756
5719 5723 5726 5731 5734 5736 5738 5740 5741 5742 5744 5746 5752 5750 5754 5762 5763 5762 5762 5763 5764 5765 5766 5766 5766 5767 5767 5767 5767 5767 5766 5766 5765 5765 5764 5763 5762 5761 5759 5757 5755 5753 5751 5748
5710 5714 5719 5723 5726 5728 5730 5733 5733 5734 5736 5739 5743 5742 5746 5752 5754 5754 5754 5755 5756 5757 5758 5758 5759 5759 5759 5759 5759 5759 5759 5758 5758 5757 5756 5755 5754 5753 5751 5749 5747 5744 5742 5739
5702 5706 5711 5715 5718 5721 5723 5724 5726 5728 5729 5730 5732 5734 5741 5743 5744 5745 5746 5747 5747 5749 5750 5750 5751 5751 5752 5752 5752 5751 5751 5750 5750 5749 5749 5747 5746 5744 5743 5741 5738 5735 5733 5729
5693 5699 5703 5706 5710 5711 5713 5715 5718 5719 5718 5720 5723 5727 5733 5735 5735 5736 5737 5738 5739 5740 5741 5742 5743 5743 5743 5744 5743 5743 5743 5743 5742 5741 5740 5739 5737 5736 5734 5732 5729 5726 5723 5720
5684 5688 5693 5696 5698 5701 5704 5707 5708 5709 5709 5711 5715 5720 5725 5727 5727 5728 5729 5729 5731 5732 5733 5734 5735 5735 5735 5735 5736 5735 5735 5735 5734 5733 5732 5730 5729 5727 5725 5722 5719 5717 5713 5710
5674 5678 5682 5686 5689 5694 5697 5699 5700 5702 5703 5705 5707 5715 5717 5718 5719 5720 5721 5721 5723 5724 5725 5726 5726 5727 5727 5727 5727 5727 5727 5726 5725 5724 5723 5721 5720 5718 5715 5713 5710 5706 5703 5699
5664 5668 5671 5677 5681 5684 5686 5689 5692 5694 5696 5697 5699 5707 5709 5710 5710 5711 5712 5714 5715 5716 5717 5717 5718 5719 5719 5719 5719 5719 5718 5718 5716 5715 5714 5712 5710 5708 5706 5703 5699 5696 5692 5688
5654 5657 5661 5665 5672 5675 5677 5681 5684 5686 5687 5688 5690 5698 5700 5702 5702 5703 5704 5705 5706 5707 5708 5709 5710 5711 5711 5711 5711 5710 5710 5709 5707 5706 5705 5703 5701 5698 5695 5692 5689 5685 5681 5677
5644 5647 5653 5659 5664 5668 5670 5673 5676 5677 5677 5680 5684 5689 5692 5693 5694 5695 5696 5697 5698 5699 5700 5701 5702 5702 5702 5702 5702 5702 5701 5700 5698 5697 5695 5693 5690 5687 5684 5681 5678 5674 5670 5666
5633 5639 5645 5650 5654 5658 5660 5663 5665 5667 5670 5673 5677 5679 5684 5684 5685 5685 5686 5688 5689 5691 5692 5693 5693 5693 5693 5693 5693 5692 5691 5690 5689 5687 5685 5682 5680 5676 5673 5670 5666 5662 5658 5654
5625 5631 5636 5641 5645 5648 5650 5654 5656 5659 5662 5664 5667 5671 5676 5675 5675 5676 5678 5679 5681 5682 5683 5684 5684 5685 5685 5684 5684 5683 5682 5680 5678 5676 5674 5671 5668 5665 5662 5658 5654 5650 5646 5641
5617 5623 5628 5632 5636 5637 5640 5647 5650 5652 5655 5658 5659 5665 5666 5665 5667 5668 5669 5670 5672 5673 5674 5674 5675 5675 5675 5675 5674 5673 5671 5670 5668 5665 5663 5660 5657 5653 5650 5646 5642 5638 5633 5628
5607 5613 5618 5622 5626 5627 5638 5640 5642 5644 5647 5650 5652 5655 5656 5657 5658 5659 5660 5661 5663 5664 5664 5665 5665 5665 5665 5665 5664 5662 5661 5659 5657 5654 5651 5648 5645 5641 5638 5634 5630 5625 5621 5616
5598 5604 5608 5612 5615 5620 5627 5631 5634 5636 5639 5642 5643 5646 5647 5648 5649 5651 5652 5652 5653 5654 5655 5655 5655 5655 5655 5654 5653 5651 5650 5647 5645 5642 5639 5636 5633 5629 5626 5622 5617 5613 5608 5603
5589 5594 5600 5603 5606 5610 5620 5625 5626 5629 5631 5636 5635 5637 5638 5638 5640 5643 5643 5643 5644 5644 5645 5645 5645 5645 5644 5643 5642 5640 5638 5636 5634 5631 5628 5624 5621 5617 5613 5609 5605 5600 5595 5589
5579 5584 5589 5594 5598 5603 5611 5615 5618 5622 5626 5627 5627 5628 5629 5630 5632 5633 5634 5634 5635 5635 5635 5635 5635 5634 5633 5632 5630 5629 5627 5624 5622 5619 5616 5612 5609 5605 5601 5596 5592 5587 5581 5576
5571 5577 5581 5585 5589 5598 5603 5606 5610 5614 5615 5616 5617 5619 5620 5621 5622 5623 5624 5625 5626 5626 5626 5625 5624 5623 5622 5621 5619 5617 5615 5613 5610 5607 5604 5600 5596 5592 5588 5583 5578 5573 5568 5562
5562 5569 5574 5579 5586 5591 5594 5598 5601 5603 5605 5607 5608 5610 5612 5613 5614 5614 5615 5616 5616 5616 5615 5615 5614 5612 5611 5610 5608 5606 5604 5601 5598 5595 5591 5588 5584 5579 5575 5570 5565 5560 5554 5548
5554 5560 5565 5570 5576 5580 5584 5588 5591 5593 5595 5597 5599 5601 5602 5603 5604 5605 5606 5606 5606 5605 5605 5604 5603 5602 5600 5598 5597 5595 5592 5589 5586 5583 5579 5575 5571 5566 5562 5557 5551 5545 5539 5533
5545 5551 5556 5561 5567 5571 5575 5579 5582 5584 5586 5588 5590 5591 5593 5594 5595 5596 5596 5596 5595 5595 5594 5593 5592 5591 5589 5587 5585 5583 5580 5577 5574 5570 5567 5562 5558 5553 5549 5543 5537 5531 5525 5517
5536 5543 5548 5554 5560 5563 5567 5570 5572 5574 5576 5578 5580 5582 5583 5584 5585 5586 5586 5586 5585 5585 5584 5583 5582 5580 5578 5576 5574 5571 5568 5565 5562 5558 5554 5549 5545 5540 5535 5529 5524 5517 5510 5503